STARLINK-37383, 69379

Orbit data source: Space-Track

STARLINK-37383, 69379 is a payload satellite owned by SpaceX/Seattle (US) in LEO that was launched on Thu, 04 Jun 2026 UTC via an FALCON 9 launch vehicle from the Air Force Eastern Test Range (AFETR). Payload-class satellites include a variety of spacecraft equipped with specific instruments for various scientific and technological missions. These include communications satellites like Starlink; space stations such as the ISS; scientific satellites like the Hubble; Earth observation satellites from companies like Planet Labs, Umbra, and HawkEye 360; GPS; miniature CubeSats for education and research; and military/defense satellites.

Loading next visibility...
Identifier
69379, 2026-123AC
Orbit
LEO
Country
Flag of USUS
Related business
Manufacturer
SpaceX/Seattle
Mission
Operational spacecraft
Bus & Motor
STARLINK V2MO, Unknown motor
Mass
575 kg wet, ~530 kg dry
Launch date (UTC)
2026-06-04 (2 months ago)
Launch vehicle
FALCON 9
Launch site
Air Force Eastern Test Range (AFETR)
Object type
Payload
Rocket body
Debris
Shape & HBR
BOX + PAN, 17.7 m
Radar Cross Section
Large (>1 m²)

Expand to show TLE details & history
Last TLE update: 22 hours ago

TLE from 22 hours ago
0 STARLINK-37383
1 69379U 26123AC  26207.54278649  .00357999  00000-0  22307-2 0  9998
2 69379  53.1586  45.1224 0000915 145.4748 214.6332 15.75355201  8250
Epoch: 2026-07-26T13:01Z
TLE epoch observation values (Epoch: 2026-07-26T13:01:36.752Z)
Latitude
-0.00003°
Longitude
-94.51997°
Altitude
345.044 km
Speed
7.703 km/s
True Right ascension
03h 00m 29s
True Declination
0° 00' 00"
Sunlit
Object was in daylight at epoch
Visualization orbit readout
Latitude
Unknown
Longitude
Unknown
Altitude
Unknown
Speed
Unknown
Apparent Right ascension
Unknown
Apparent Declination
Unknown
Sunlit
N/A
Visualization observer readout
Local Sidereal Time
00:03:02
Azimuth
Unknown
Elevation
Unknown
Doppler factor
Unknown
Orbital elements
Apogee altitude
344.497 km
Perigee altitude
343.267 km
Semi-major axis
6,722.019 km
Eccentricity
0.00009
Inclination
53.1586°
RAAN
45.1224°
Arg. of periapsis
145.4748°
True anomaly
214.62724°
Mean anomaly
214.6332°
Eccentric anomaly
214.63022°
Mean motion
3.93816 °/min
Orbital period
91.41 mins
BSTAR
0.0022307
Loading maneuver chart data...
Computing Atmospheric mass density...
Loading historical data...
Loading historical data...
Loading historical data...
Loading historical data...
Loading historical data...
Loading historical data...
Loading historical data...

Documentation

Showing up to 5 results
|